contact:dominique.lefevre@mio.osupytheas.fr, maurice.libes@osupytheas.fr, didier.mallarino@osupytheas.fr
Project:EMSO http://www.emso-fr.org/EMSO-France
Depth: 2436.0 m
Title:EMSO Ligure Ouest : Data MII capteur CSTAR
DateTime,Latitude,Longitude,Instrument_Serial,Reference_Counts,Signal_Counts,Corrected_Signal_raw_counts,Calculated_Beam_c_inverse_meters,Internal_thermistor_counts
DateTime,Latitude,Longitude,Instrument_Serial,Reference_Counts,Signal_Counts,Corrected_Signal_raw_counts,Calculated_Beam_c_inverse_meters,Internal_thermistor_counts
2019-12-09T00:03:01,42.805,6.029,CST-1368DR,7199,10089,15291,0.084,551
2019-12-09T00:06:02,42.805,6.029,CST-1368DR,7199,10089,15291,0.084,551
2019-12-09T00:09:04,42.805,6.029,CST-1368DR,7199,10089,15291,0.084,551
2019-12-09T00:12:06,42.805,6.029,CST-1368DR,7199,10089,15291,0.084,551
2019-12-09T00:15:07,42.805,6.029,CST-1368DR,7199,10089,15291,0.084,550
2019-12-09T00:18:09,42.805,6.029,CST-1368DR,7199,10090,15292,0.084,551
2019-12-09T00:21:11,42.805,6.029,CST-1368DR,7199,10089,15291,0.084,551
2019-12-09T00:24:12,42.805,6.029,CST-1368DR,7199,10089,15292,0.084,551
2019-12-09T00:27:14,42.805,6.029,CST-1368DR,7199,10090,15292,0.084,551
2019-12-09T00:30:15,42.805,6.029,CST-1368DR,7199,10088,15290,0.084,551
2019-12-09T00:33:17,42.805,6.029,CST-1368DR,7199,10089,15292,0.084,551
2019-12-09T00:36:19,42.805,6.029,CST-1368DR,7199,10089,15292,0.084,551
2019-12-09T00:39:20,42.805,6.029,CST-1368DR,7199,10089,15291,0.084,551
2019-12-09T00:42:22,42.805,6.029,CST-1368DR,7199,10088,15290,0.084,551
2019-12-09T00:45:24,42.805,6.029,CST-1368DR,7199,10088,15290,0.084,551
2019-12-09T00:48:25,42.805,6.029,CST-1368DR,7199,10089,15291,0.084,551
2019-12-09T00:51:27,42.805,6.029,CST-1368DR,7199,10089,15292,0.084,551
2019-12-09T00:54:28,42.805,6.029,CST-1368DR,7199,10087,15288,0.085,551
2019-12-09T00:57:30,42.805,6.029,CST-1368DR,7199,10089,15292,0.084,550
2019-12-09T01:00:32,42.805,6.029,CST-1368DR,7199,10088,15290,0.084,551
2019-12-09T01:03:33,42.805,6.029,CST-1368DR,7199,10089,15291,0.084,551
2019-12-09T01:06:35,42.805,6.029,CST-1368DR,7199,10089,15291,0.084,551
2019-12-09T01:09:37,42.805,6.029,CST-1368DR,7199,10088,15290,0.084,551
2019-12-09T01:12:38,42.805,6.029,CST-1368DR,7199,10088,15289,0.085,551
2019-12-09T01:15:40,42.805,6.029,CST-1368DR,7199,10088,15290,0.084,551
2019-12-09T01:18:42,42.805,6.029,CST-1368DR,7199,10088,15290,0.084,551
2019-12-09T01:21:43,42.805,6.029,CST-1368DR,7199,10087,15288,0.085,551
2019-12-09T01:24:45,42.805,6.029,CST-1368DR,7199,10088,15290,0.084,551
2019-12-09T01:27:46,42.805,6.029,CST-1368DR,7199,10088,15290,0.084,551
2019-12-09T01:30:48,42.805,6.029,CST-1368DR,7199,10086,15286,0.085,551
2019-12-09T01:33:50,42.805,6.029,CST-1368DR,7199,10088,15289,0.085,551
2019-12-09T01:36:51,42.805,6.029,CST-1368DR,7198,10088,15292,0.084,551
2019-12-09T01:39:53,42.805,6.029,CST-1368DR,7198,10086,15289,0.085,551
2019-12-09T01:42:55,42.805,6.029,CST-1368DR,7199,10087,15288,0.085,551
2019-12-09T01:45:56,42.805,6.029,CST-1368DR,7198,10088,15292,0.084,551
2019-12-09T01:48:58,42.805,6.029,CST-1368DR,7198,10088,15292,0.084,551
2019-12-09T01:51:59,42.805,6.029,CST-1368DR,7198,10088,15292,0.084,551
2019-12-09T01:55:01,42.805,6.029,CST-1368DR,7198,10088,15291,0.084,551
2019-12-09T01:58:03,42.805,6.029,CST-1368DR,7198,10087,15290,0.084,551
2019-12-09T02:01:05,42.805,6.029,CST-1368DR,7198,10088,15292,0.084,551
2019-12-09T02:04:06,42.805,6.029,CST-1368DR,7198,10088,15291,0.084,551
2019-12-09T02:07:08,42.805,6.029,CST-1368DR,7198,10088,15292,0.084,551
2019-12-09T02:10:09,42.805,6.029,CST-1368DR,7198,10089,15293,0.084,551
2019-12-09T02:13:11,42.805,6.029,CST-1368DR,7198,10088,15292,0.084,551
2019-12-09T02:16:13,42.805,6.029,CST-1368DR,7198,10089,15293,0.084,550
2019-12-09T02:19:14,42.805,6.029,CST-1368DR,7198,10088,15292,0.084,551
2019-12-09T02:22:16,42.805,6.029,CST-1368DR,7198,10088,15292,0.084,551
2019-12-09T02:25:18,42.805,6.029,CST-1368DR,7198,10088,15291,0.084,551
2019-12-09T02:28:19,42.805,6.029,CST-1368DR,7198,10088,15292,0.084,551
2019-12-09T02:31:21,42.805,6.029,CST-1368DR,7198,10088,15292,0.084,551
2019-12-09T02:34:22,42.805,6.029,CST-1368DR,7198,10087,15290,0.084,551
2019-12-09T02:37:24,42.805,6.029,CST-1368DR,7198,10088,15291,0.084,551
2019-12-09T02:40:26,42.805,6.029,CST-1368DR,7198,10088,15292,0.084,551
2019-12-09T02:43:28,42.805,6.029,CST-1368DR,7198,10088,15291,0.084,551
2019-12-09T02:46:29,42.805,6.029,CST-1368DR,7198,10088,15291,0.084,551
2019-12-09T02:49:31,42.805,6.029,CST-1368DR,7198,10088,15292,0.084,551
2019-12-09T02:52:33,42.805,6.029,CST-1368DR,7198,10088,15292,0.084,551
2019-12-09T02:55:35,42.805,6.029,CST-1368DR,7198,10084,15286,0.085,551
2019-12-09T02:58:36,42.805,6.029,CST-1368DR,7198,10088,15292,0.084,551
2019-12-09T03:01:38,42.805,6.029,CST-1368DR,7198,10089,15293,0.084,551
2019-12-09T03:04:39,42.805,6.029,CST-1368DR,7198,10087,15290,0.084,551
2019-12-09T03:07:41,42.805,6.029,CST-1368DR,7198,10088,15291,0.084,551
2019-12-09T03:10:43,42.805,6.029,CST-1368DR,7198,10086,15289,0.085,551
2019-12-09T03:13:44,42.805,6.029,CST-1368DR,7198,10087,15290,0.084,551
2019-12-09T03:16:46,42.805,6.029,CST-1368DR,7198,10087,15290,0.084,551
2019-12-09T03:19:48,42.805,6.029,CST-1368DR,7198,10088,15292,0.084,551
2019-12-09T03:22:49,42.805,6.029,CST-1368DR,7198,10089,15293,0.084,551
2019-12-09T03:25:51,42.805,6.029,CST-1368DR,7198,10088,15291,0.084,551
2019-12-09T03:28:53,42.805,6.029,CST-1368DR,7198,10086,15289,0.085,551
2019-12-09T03:31:54,42.805,6.029,CST-1368DR,7198,10088,15291,0.084,551
2019-12-09T03:34:56,42.805,6.029,CST-1368DR,7198,10086,15289,0.085,551
2019-12-09T03:37:57,42.805,6.029,CST-1368DR,7198,10089,15293,0.084,550
2019-12-09T03:40:59,42.805,6.029,CST-1368DR,7198,10088,15292,0.084,551
2019-12-09T03:44:01,42.805,6.029,CST-1368DR,7198,10086,15288,0.085,551
2019-12-09T03:47:02,42.805,6.029,CST-1368DR,7198,10088,15292,0.084,551
2019-12-09T03:50:04,42.805,6.029,CST-1368DR,7198,10087,15290,0.084,551
2019-12-09T03:53:06,42.805,6.029,CST-1368DR,7198,10086,15289,0.085,551
2019-12-09T03:56:07,42.805,6.029,CST-1368DR,7198,10086,15288,0.085,551
2019-12-09T03:59:09,42.805,6.029,CST-1368DR,7198,10087,15290,0.084,551
2019-12-09T04:02:11,42.805,6.029,CST-1368DR,7198,10088,15292,0.084,551
2019-12-09T04:05:12,42.805,6.029,CST-1368DR,7198,10088,15292,0.084,551
2019-12-09T04:08:14,42.805,6.029,CST-1368DR,7198,10088,15291,0.084,551
2019-12-09T04:11:15,42.805,6.029,CST-1368DR,7198,10087,15290,0.084,551
2019-12-09T04:14:17,42.805,6.029,CST-1368DR,7198,10088,15291,0.084,551
2019-12-09T04:17:19,42.805,6.029,CST-1368DR,7198,10087,15290,0.084,551
2019-12-09T04:20:20,42.805,6.029,CST-1368DR,7198,10087,15290,0.084,551
2019-12-09T04:23:22,42.805,6.029,CST-1368DR,7198,10087,15290,0.084,551
2019-12-09T04:26:24,42.805,6.029,CST-1368DR,7198,10085,15287,0.085,551
2019-12-09T04:29:25,42.805,6.029,CST-1368DR,7198,10086,15288,0.085,551
2019-12-09T04:32:27,42.805,6.029,CST-1368DR,7198,10087,15290,0.084,551
2019-12-09T04:35:28,42.805,6.029,CST-1368DR,7198,10086,15289,0.085,551
2019-12-09T04:38:30,42.805,6.029,CST-1368DR,7198,10087,15290,0.084,550
2019-12-09T04:41:32,42.805,6.029,CST-1368DR,7198,10087,15290,0.084,551
2019-12-09T04:44:34,42.805,6.029,CST-1368DR,7198,10088,15292,0.084,551
2019-12-09T04:47:35,42.805,6.029,CST-1368DR,7198,10088,15291,0.084,551
2019-12-09T04:50:37,42.805,6.029,CST-1368DR,7198,10087,15290,0.084,551
2019-12-09T04:53:38,42.805,6.029,CST-1368DR,7198,10088,15292,0.084,550
2019-12-09T04:56:40,42.805,6.029,CST-1368DR,7198,10086,15289,0.085,551
2019-12-09T04:59:42,42.805,6.029,CST-1368DR,7197,10082,15285,0.086,551
2019-12-09T05:02:43,42.805,6.029,CST-1368DR,7198,10085,15288,0.085,551
2019-12-09T05:05:45,42.805,6.029,CST-1368DR,7198,10087,15290,0.084,551
2019-12-09T05:08:47,42.805,6.029,CST-1368DR,7198,10088,15291,0.084,551
2019-12-09T05:11:48,42.805,6.029,CST-1368DR,7198,10088,15292,0.084,551
2019-12-09T05:14:50,42.805,6.029,CST-1368DR,7198,10088,15292,0.084,551
2019-12-09T05:17:51,42.805,6.029,CST-1368DR,7198,10087,15290,0.084,551
2019-12-09T05:20:53,42.805,6.029,CST-1368DR,7198,10087,15290,0.084,551
2019-12-09T05:23:55,42.805,6.029,CST-1368DR,7197,10086,15291,0.084,551
2019-12-09T05:26:56,42.805,6.029,CST-1368DR,7197,10087,15292,0.084,551
2019-12-09T05:29:58,42.805,6.029,CST-1368DR,7197,10087,15292,0.084,551
2019-12-09T05:32:59,42.805,6.029,CST-1368DR,7197,10087,15292,0.084,551
2019-12-09T05:36:01,42.805,6.029,CST-1368DR,7197,10086,15291,0.084,551
2019-12-09T05:39:03,42.805,6.029,CST-1368DR,7197,10088,15293,0.084,551
2019-12-09T05:42:05,42.805,6.029,CST-1368DR,7197,10086,15291,0.084,551
2019-12-09T05:45:06,42.805,6.029,CST-1368DR,7197,10086,15291,0.084,551
2019-12-09T05:48:08,42.805,6.029,CST-1368DR,7197,10086,15291,0.084,551
2019-12-09T05:51:10,42.805,6.029,CST-1368DR,7197,10087,15292,0.084,551
2019-12-09T05:54:11,42.805,6.029,CST-1368DR,7197,10087,15291,0.084,551
2019-12-09T05:57:13,42.805,6.029,CST-1368DR,7197,10086,15291,0.084,551
2019-12-09T06:00:15,42.805,6.029,CST-1368DR,7197,10087,15292,0.084,551
2019-12-09T06:03:16,42.805,6.029,CST-1368DR,7197,10085,15290,0.084,550
2019-12-09T06:06:18,42.805,6.029,CST-1368DR,7197,10086,15291,0.084,551
2019-12-09T06:09:19,42.805,6.029,CST-1368DR,7197,10086,15291,0.084,551
2019-12-09T06:12:21,42.805,6.029,CST-1368DR,7197,10087,15291,0.084,551
2019-12-09T06:15:23,42.805,6.029,CST-1368DR,7197,10086,15291,0.084,551
2019-12-09T06:18:24,42.805,6.029,CST-1368DR,7197,10085,15289,0.085,551
2019-12-09T06:21:26,42.805,6.029,CST-1368DR,7197,10086,15291,0.084,551
2019-12-09T06:24:28,42.805,6.029,CST-1368DR,7197,10086,15291,0.084,551
2019-12-09T06:27:29,42.805,6.029,CST-1368DR,7197,10086,15291,0.084,551
2019-12-09T06:30:31,42.805,6.029,CST-1368DR,7197,10086,15291,0.084,551
2019-12-09T06:33:32,42.805,6.029,CST-1368DR,7197,10086,15291,0.084,550
2019-12-09T06:36:34,42.805,6.029,CST-1368DR,7197,10085,15290,0.084,550
2019-12-09T06:39:36,42.805,6.029,CST-1368DR,7197,10082,15284,0.086,551
2019-12-09T06:42:37,42.805,6.029,CST-1368DR,7197,10086,15290,0.084,551
2019-12-09T06:45:39,42.805,6.029,CST-1368DR,7197,10086,15291,0.084,551
2019-12-09T06:48:41,42.805,6.029,CST-1368DR,7197,10087,15291,0.084,551
2019-12-09T06:51:42,42.805,6.029,CST-1368DR,7197,10082,15284,0.086,551
2019-12-09T06:54:44,42.805,6.029,CST-1368DR,7197,10080,15282,0.086,551
2019-12-09T06:57:45,42.805,6.029,CST-1368DR,7197,10086,15291,0.084,551
2019-12-09T07:00:47,42.805,6.029,CST-1368DR,7197,10086,15291,0.084,551
2019-12-09T07:03:49,42.805,6.029,CST-1368DR,7197,10087,15291,0.084,551
2019-12-09T07:06:50,42.805,6.029,CST-1368DR,7197,10086,15291,0.084,551
2019-12-09T07:09:52,42.805,6.029,CST-1368DR,7197,10087,15292,0.084,551
2019-12-09T07:12:53,42.805,6.029,CST-1368DR,7197,10087,15291,0.084,551
2019-12-09T07:15:55,42.805,6.029,CST-1368DR,7197,10088,15293,0.084,551
2019-12-09T07:18:57,42.805,6.029,CST-1368DR,7197,10088,15293,0.084,551
2019-12-09T07:21:58,42.805,6.029,CST-1368DR,7197,10087,15292,0.084,551
2019-12-09T07:25:00,42.805,6.029,CST-1368DR,7197,10086,15290,0.084,551
2019-12-09T07:28:02,42.805,6.029,CST-1368DR,7197,10085,15290,0.084,551
2019-12-09T07:31:03,42.805,6.029,CST-1368DR,7197,10087,15291,0.084,550
2019-12-09T07:34:05,42.805,6.029,CST-1368DR,7197,10085,15290,0.084,551
2019-12-09T07:37:06,42.805,6.029,CST-1368DR,7197,10087,15292,0.084,551
2019-12-09T07:40:08,42.805,6.029,CST-1368DR,7197,10087,15292,0.084,551
2019-12-09T07:43:10,42.805,6.029,CST-1368DR,7197,10087,15292,0.084,551
2019-12-09T07:46:11,42.805,6.029,CST-1368DR,7197,10086,15291,0.084,551
2019-12-09T07:49:13,42.805,6.029,CST-1368DR,7197,10085,15289,0.085,551
2019-12-09T07:52:15,42.805,6.029,CST-1368DR,7197,10086,15291,0.084,551
2019-12-09T07:55:16,42.805,6.029,CST-1368DR,7197,10087,15291,0.084,551
2019-12-09T07:58:18,42.805,6.029,CST-1368DR,7197,10085,15288,0.085,551
2019-12-09T08:01:20,42.805,6.029,CST-1368DR,7197,10086,15291,0.084,551
2019-12-09T08:04:21,42.805,6.029,CST-1368DR,7197,10086,15291,0.084,551
2019-12-09T08:07:23,42.805,6.029,CST-1368DR,7197,10086,15290,0.084,551
2019-12-09T08:10:24,42.805,6.029,CST-1368DR,7197,10083,15286,0.085,551
2019-12-09T08:13:26,42.805,6.029,CST-1368DR,7197,10087,15291,0.084,551
2019-12-09T08:16:28,42.805,6.029,CST-1368DR,7197,10086,15291,0.084,551
2019-12-09T08:19:29,42.805,6.029,CST-1368DR,7197,10086,15291,0.084,551
2019-12-09T08:22:31,42.805,6.029,CST-1368DR,7197,10086,15290,0.084,551
2019-12-09T08:25:33,42.805,6.029,CST-1368DR,7197,10086,15290,0.084,551
2019-12-09T08:28:34,42.805,6.029,CST-1368DR,7197,10085,15290,0.084,551
2019-12-09T08:31:36,42.805,6.029,CST-1368DR,7197,10086,15291,0.084,551
2019-12-09T08:34:37,42.805,6.029,CST-1368DR,7197,10086,15290,0.084,551
2019-12-09T08:37:39,42.805,6.029,CST-1368DR,7197,10084,15287,0.085,551
2019-12-09T08:40:41,42.805,6.029,CST-1368DR,7197,10086,15291,0.084,551
2019-12-09T08:43:42,42.805,6.029,CST-1368DR,7197,10086,15290,0.084,551
2019-12-09T08:46:44,42.805,6.029,CST-1368DR,7197,10085,15290,0.084,551
2019-12-09T08:49:46,42.805,6.029,CST-1368DR,7197,10086,15290,0.084,551
2019-12-09T08:52:47,42.805,6.029,CST-1368DR,7197,10086,15290,0.084,551
2019-12-09T08:55:49,42.805,6.029,CST-1368DR,7197,10086,15290,0.084,551
2019-12-09T08:58:51,42.805,6.029,CST-1368DR,7197,10085,15289,0.085,551
2019-12-09T09:01:52,42.805,6.029,CST-1368DR,7197,10081,15283,0.086,551
2019-12-09T09:04:54,42.805,6.029,CST-1368DR,7197,10086,15290,0.084,551
2019-12-09T09:07:55,42.805,6.029,CST-1368DR,7197,10086,15291,0.084,550
2019-12-09T09:10:57,42.805,6.029,CST-1368DR,7197,10086,15291,0.084,551
2019-12-09T09:13:59,42.805,6.029,CST-1368DR,7196,10086,15293,0.084,551
2019-12-09T09:17:00,42.805,6.029,CST-1368DR,7197,10086,15290,0.084,551
2019-12-09T09:20:02,42.805,6.029,CST-1368DR,7197,10085,15289,0.085,551
2019-12-09T09:23:04,42.805,6.029,CST-1368DR,7196,10086,15293,0.084,551
2019-12-09T09:26:05,42.805,6.029,CST-1368DR,7196,10086,15293,0.084,551
2019-12-09T09:29:07,42.805,6.029,CST-1368DR,7196,10085,15292,0.084,551
2019-12-09T09:32:08,42.805,6.029,CST-1368DR,7196,10085,15292,0.084,551
2019-12-09T09:35:10,42.805,6.029,CST-1368DR,7196,10086,15293,0.084,551
2019-12-09T09:38:12,42.805,6.029,CST-1368DR,7196,10085,15290,0.084,551
2019-12-09T09:41:13,42.805,6.029,CST-1368DR,7196,10084,15289,0.085,551
2019-12-09T09:44:15,42.805,6.029,CST-1368DR,7196,10085,15291,0.084,551
2019-12-09T09:47:17,42.805,6.029,CST-1368DR,7196,10085,15292,0.084,551
2019-12-09T09:50:18,42.805,6.029,CST-1368DR,7196,10086,15292,0.084,551
2019-12-09T09:53:20,42.805,6.029,CST-1368DR,7196,10086,15293,0.084,551
2019-12-09T09:56:21,42.805,6.029,CST-1368DR,7196,10085,15292,0.084,551
2019-12-09T09:59:23,42.805,6.029,CST-1368DR,7196,10085,15292,0.084,551
2019-12-09T10:02:25,42.805,6.029,CST-1368DR,7196,10086,15292,0.084,551
2019-12-09T10:05:26,42.805,6.029,CST-1368DR,7196,10085,15291,0.084,551
2019-12-09T10:08:28,42.805,6.029,CST-1368DR,7196,10086,15292,0.084,550
2019-12-09T10:11:29,42.805,6.029,CST-1368DR,7196,10086,15293,0.084,551
2019-12-09T10:14:31,42.805,6.029,CST-1368DR,7196,10086,15292,0.084,551
2019-12-09T10:17:33,42.805,6.029,CST-1368DR,7196,10085,15292,0.084,551
2019-12-09T10:20:34,42.805,6.029,CST-1368DR,7196,10085,15291,0.084,551
2019-12-09T10:23:36,42.805,6.029,CST-1368DR,7196,10086,15292,0.084,551
2019-12-09T10:26:38,42.805,6.029,CST-1368DR,7196,10086,15292,0.084,551
2019-12-09T10:29:39,42.805,6.029,CST-1368DR,7196,10085,15291,0.084,551
2019-12-09T10:32:41,42.805,6.029,CST-1368DR,7196,10086,15293,0.084,551
2019-12-09T10:35:42,42.805,6.029,CST-1368DR,7196,10086,15292,0.084,551
2019-12-09T10:38:44,42.805,6.029,CST-1368DR,7196,10083,15289,0.085,551
2019-12-09T10:41:46,42.805,6.029,CST-1368DR,7196,10084,15289,0.085,551
2019-12-09T10:44:47,42.805,6.029,CST-1368DR,7196,10084,15290,0.084,551
2019-12-09T10:47:49,42.805,6.029,CST-1368DR,7196,10085,15292,0.084,551
2019-12-09T10:50:51,42.805,6.029,CST-1368DR,7196,10085,15292,0.084,551
2019-12-09T10:53:52,42.805,6.029,CST-1368DR,7196,10085,15290,0.084,550
2019-12-09T10:56:54,42.805,6.029,CST-1368DR,7196,10085,15291,0.084,551
2019-12-09T10:59:55,42.805,6.029,CST-1368DR,7196,10085,15290,0.084,551
2019-12-09T11:02:57,42.805,6.029,CST-1368DR,7196,10084,15290,0.084,551
2019-12-09T11:05:59,42.805,6.029,CST-1368DR,7196,10085,15290,0.084,551
2019-12-09T11:09:00,42.805,6.029,CST-1368DR,7196,10085,15291,0.084,551
2019-12-09T11:12:02,42.805,6.029,CST-1368DR,7196,10084,15290,0.084,551
2019-12-09T11:15:03,42.805,6.029,CST-1368DR,7196,10085,15290,0.084,551
2019-12-09T11:18:05,42.805,6.029,CST-1368DR,7196,10085,15292,0.084,551
2019-12-09T11:21:07,42.805,6.029,CST-1368DR,7196,10085,15291,0.084,550
2019-12-09T11:24:08,42.805,6.029,CST-1368DR,7196,10085,15291,0.084,551
2019-12-09T11:27:10,42.805,6.029,CST-1368DR,7196,10084,15289,0.085,551
2019-12-09T11:30:12,42.805,6.029,CST-1368DR,7196,10086,15292,0.084,551
2019-12-09T11:33:14,42.805,6.029,CST-1368DR,7196,10085,15292,0.084,551
2019-12-09T11:36:15,42.805,6.029,CST-1368DR,7196,10085,15292,0.084,550
2019-12-09T11:39:17,42.805,6.029,CST-1368DR,7196,10085,15291,0.084,551
2019-12-09T11:42:18,42.805,6.029,CST-1368DR,7196,10085,15290,0.084,551
2019-12-09T11:45:20,42.805,6.029,CST-1368DR,7196,10082,15287,0.085,551
2019-12-09T11:48:22,42.805,6.029,CST-1368DR,7196,10084,15290,0.084,551
2019-12-09T11:51:23,42.805,6.029,CST-1368DR,7196,10084,15290,0.084,551
2019-12-09T11:54:25,42.805,6.029,CST-1368DR,7196,10083,15289,0.085,551
2019-12-09T11:57:27,42.805,6.029,CST-1368DR,7196,10085,15291,0.084,551
2019-12-09T12:00:28,42.805,6.029,CST-1368DR,7196,10085,15292,0.084,551
2019-12-09T12:03:30,42.805,6.029,CST-1368DR,7196,10085,15291,0.084,551
2019-12-09T12:06:32,42.805,6.029,CST-1368DR,7196,10085,15291,0.084,550
2019-12-09T12:09:33,42.805,6.029,CST-1368DR,7196,10085,15291,0.084,551
2019-12-09T12:12:35,42.805,6.029,CST-1368DR,7196,10085,15291,0.084,551
2019-12-09T12:15:37,42.805,6.029,CST-1368DR,7196,10085,15291,0.084,551
2019-12-09T12:18:38,42.805,6.029,CST-1368DR,7196,10083,15289,0.085,551
2019-12-09T12:21:40,42.805,6.029,CST-1368DR,7196,10084,15290,0.084,551
2019-12-09T12:24:42,42.805,6.029,CST-1368DR,7196,10085,15291,0.084,551
2019-12-09T12:27:43,42.805,6.029,CST-1368DR,7195,10084,15291,0.084,551
2019-12-09T12:30:45,42.805,6.029,CST-1368DR,7196,10085,15292,0.084,551
2019-12-09T12:33:47,42.805,6.029,CST-1368DR,7195,10085,15293,0.084,551
2019-12-09T12:36:48,42.805,6.029,CST-1368DR,7195,10085,15293,0.084,551
2019-12-09T12:39:50,42.805,6.029,CST-1368DR,7195,10082,15289,0.085,551
2019-12-09T12:42:52,42.805,6.029,CST-1368DR,7195,10085,15292,0.084,551
2019-12-09T12:45:53,42.805,6.029,CST-1368DR,7195,10084,15292,0.084,551
2019-12-09T12:48:55,42.805,6.029,CST-1368DR,7195,10083,15291,0.084,551
2019-12-09T12:51:57,42.805,6.029,CST-1368DR,7195,10084,15292,0.084,551
2019-12-09T12:54:58,42.805,6.029,CST-1368DR,7195,10085,15293,0.084,551
2019-12-09T12:58:00,42.805,6.029,CST-1368DR,7195,10085,15292,0.084,551
2019-12-09T13:01:02,42.805,6.029,CST-1368DR,7195,10084,15292,0.084,551
2019-12-09T13:04:03,42.805,6.029,CST-1368DR,7195,10085,15294,0.083,551
2019-12-09T13:07:05,42.805,6.029,CST-1368DR,7195,10086,15294,0.083,551
2019-12-09T13:10:07,42.805,6.029,CST-1368DR,7195,10086,15294,0.083,550
2019-12-09T13:13:08,42.805,6.029,CST-1368DR,7195,10085,15293,0.084,551
2019-12-09T13:16:10,42.805,6.029,CST-1368DR,7195,10084,15292,0.084,551
2019-12-09T13:19:11,42.805,6.029,CST-1368DR,7195,10085,15293,0.084,550
2019-12-09T13:22:13,42.805,6.029,CST-1368DR,7195,10085,15294,0.083,551
2019-12-09T13:25:15,42.805,6.029,CST-1368DR,7195,10084,15292,0.084,551
2019-12-09T13:28:17,42.805,6.029,CST-1368DR,7195,10084,15292,0.084,551
2019-12-09T13:31:18,42.805,6.029,CST-1368DR,7195,10084,15292,0.084,551
2019-12-09T13:34:20,42.805,6.029,CST-1368DR,7195,10083,15290,0.084,551
2019-12-09T13:37:22,42.805,6.029,CST-1368DR,7195,10084,15291,0.084,551
2019-12-09T13:40:23,42.805,6.029,CST-1368DR,7195,10085,15293,0.084,550
2019-12-09T13:43:25,42.805,6.029,CST-1368DR,7195,10083,15290,0.084,551
2019-12-09T13:46:26,42.805,6.029,CST-1368DR,7195,10085,15293,0.084,551
2019-12-09T13:49:28,42.805,6.029,CST-1368DR,7195,10084,15292,0.084,551
2019-12-09T13:52:30,42.805,6.029,CST-1368DR,7195,10084,15292,0.084,551
2019-12-09T13:55:32,42.805,6.029,CST-1368DR,7195,10084,15291,0.084,551
2019-12-09T13:58:33,42.805,6.029,CST-1368DR,7195,10085,15293,0.084,551
2019-12-09T14:01:35,42.805,6.029,CST-1368DR,7195,10085,15293,0.084,551
2019-12-09T14:04:36,42.805,6.029,CST-1368DR,7195,10082,15289,0.085,551
2019-12-09T14:07:38,42.805,6.029,CST-1368DR,7195,10083,15291,0.084,551
2019-12-09T14:10:40,42.805,6.029,CST-1368DR,7195,10085,15292,0.084,551
2019-12-09T14:13:41,42.805,6.029,CST-1368DR,7195,10083,15290,0.084,550
2019-12-09T14:16:43,42.805,6.029,CST-1368DR,7195,10084,15292,0.084,551
2019-12-09T14:19:45,42.805,6.029,CST-1368DR,7195,10083,15290,0.084,551
2019-12-09T14:22:46,42.805,6.029,CST-1368DR,7195,10082,15288,0.085,551
2019-12-09T14:25:48,42.805,6.029,CST-1368DR,7195,10084,15291,0.084,551
2019-12-09T14:28:50,42.805,6.029,CST-1368DR,7195,10083,15291,0.084,550
2019-12-09T14:31:51,42.805,6.029,CST-1368DR,7195,10082,15288,0.085,551
2019-12-09T14:34:53,42.805,6.029,CST-1368DR,7195,10085,15293,0.084,550
2019-12-09T14:37:54,42.805,6.029,CST-1368DR,7195,10084,15291,0.084,551
2019-12-09T14:40:56,42.805,6.029,CST-1368DR,7195,10083,15289,0.085,551
2019-12-09T14:43:58,42.805,6.029,CST-1368DR,7195,10083,15290,0.084,551
2019-12-09T14:46:59,42.805,6.029,CST-1368DR,7195,10083,15291,0.084,551
2019-12-09T14:50:01,42.805,6.029,CST-1368DR,7195,10082,15288,0.085,551
2019-12-09T14:53:03,42.805,6.029,CST-1368DR,7195,10081,15287,0.085,551
2019-12-09T14:56:05,42.805,6.029,CST-1368DR,7195,10083,15289,0.085,551
2019-12-09T14:59:07,42.805,6.029,CST-1368DR,7195,10082,15288,0.085,551
2019-12-09T15:02:08,42.805,6.029,CST-1368DR,7195,10083,15290,0.084,551
2019-12-09T15:05:10,42.805,6.029,CST-1368DR,7195,10084,15292,0.084,551
2019-12-09T15:08:12,42.805,6.029,CST-1368DR,7195,10083,15290,0.084,551
2019-12-09T15:11:13,42.805,6.029,CST-1368DR,7195,10083,15289,0.085,551
2019-12-09T15:14:15,42.805,6.029,CST-1368DR,7195,10083,15289,0.085,551
2019-12-09T15:17:17,42.805,6.029,CST-1368DR,7195,10081,15287,0.085,551
2019-12-09T15:20:18,42.805,6.029,CST-1368DR,7195,10083,15290,0.084,551
2019-12-09T15:23:20,42.805,6.029,CST-1368DR,7195,10083,15289,0.085,551
2019-12-09T15:26:21,42.805,6.029,CST-1368DR,7195,10083,15291,0.084,550
2019-12-09T15:29:23,42.805,6.029,CST-1368DR,7195,10082,15289,0.085,551
2019-12-09T15:32:25,42.805,6.029,CST-1368DR,7195,10083,15290,0.084,551
2019-12-09T15:35:26,42.805,6.029,CST-1368DR,7195,10083,15289,0.085,551
2019-12-09T15:38:28,42.805,6.029,CST-1368DR,7195,10083,15290,0.084,551
2019-12-09T15:41:30,42.805,6.029,CST-1368DR,7195,10083,15291,0.084,551
2019-12-09T15:44:31,42.805,6.029,CST-1368DR,7195,10083,15291,0.084,551
2019-12-09T15:47:33,42.805,6.029,CST-1368DR,7195,10083,15290,0.084,551
2019-12-09T15:50:34,42.805,6.029,CST-1368DR,7195,10082,15289,0.085,551
2019-12-09T15:53:36,42.805,6.029,CST-1368DR,7195,10082,15289,0.085,551
2019-12-09T15:56:38,42.805,6.029,CST-1368DR,7195,10081,15287,0.085,551
2019-12-09T15:59:39,42.805,6.029,CST-1368DR,7195,10082,15289,0.085,551
2019-12-09T16:02:41,42.805,6.029,CST-1368DR,7195,10082,15289,0.085,551
2019-12-09T16:05:43,42.805,6.029,CST-1368DR,7195,10083,15289,0.085,551
2019-12-09T16:08:44,42.805,6.029,CST-1368DR,7195,10083,15289,0.085,551
2019-12-09T16:11:46,42.805,6.029,CST-1368DR,7195,10083,15290,0.084,551
2019-12-09T16:14:48,42.805,6.029,CST-1368DR,7195,10083,15290,0.084,551
2019-12-09T16:17:49,42.805,6.029,CST-1368DR,7195,10083,15290,0.084,551
2019-12-09T16:20:51,42.805,6.029,CST-1368DR,7195,10083,15291,0.084,551
2019-12-09T16:23:53,42.805,6.029,CST-1368DR,7194,10082,15291,0.084,551
2019-12-09T16:26:54,42.805,6.029,CST-1368DR,7195,10082,15289,0.085,551
2019-12-09T16:29:56,42.805,6.029,CST-1368DR,7194,10082,15290,0.084,551
2019-12-09T16:32:58,42.805,6.029,CST-1368DR,7194,10082,15290,0.084,551
2019-12-09T16:35:59,42.805,6.029,CST-1368DR,7194,10082,15290,0.084,551
2019-12-09T16:39:01,42.805,6.029,CST-1368DR,7194,10082,15290,0.084,551